Temp
12 12 12 12 12 12 12 11 11 11 11 11 11 11 10 10 10 10 10 10 9 9 9 10 10 9 9 9 9 8 8 8 8 7 7 7 7 7 6 6 6 6
12 12 12 12 12 12 12 11 11 11 11 11 11 10 10 10 10 10 10 9 9 9 9 9 9 9 9 9 8 8 8 8 8 7 7 7 7 7 6 6 6 6
12 12 12 12 12 12 11 11 11 11 11 11 11 10 10 10 10 9 9 9 9 9 9 9 9 9 9 8 8 8 8 8 7 7 7 7 7 7 6 6 6 6
12 12 12 12 12 11 11 11 11 11 11 11 11 10 10 10 10 9 9 9 9 9 9 9 9 9 8 8 8 8 8 7 7 7 7 7 7 6 6 6 6 6
12 12 12 12 11 11 11 11 11 11 11 11 10 10 10 10 9 9 9 9 9 9 9 9 9 9 8 8 8 8 7 7 7 7 7 7 6 6 6 6 6 6
12 12 12 11 11 11 11 11 11 11 11 10 10 10 10 9 9 9 8 8 8 9 9 9 9 8 8 8 8 7 7 7 7 7 6 6 6 6 5 5 5 5
12 12 12 11 11 11 11 11 10 10 10 10 10 10 10 9 9 8 8 8 8 8 8 8 8 8 8 8 7 7 7 7 6 6 6 6 6 5 5 5 5 5
12 12 12 11 11 11 11 10 10 10 10 10 10 10 9 9 9 9 9 8 8 8 8 8 8 8 8 7 7 7 7 7 6 6 6 6 5 5 5 5 5 5
12 12 12 11 11 11 10 10 10 10 9 9 9 9 9 8 9 9 9 8 8 8 8 8 8 7 7 7 7 7 7 6 6 6 6 6 5 5 5 5 5 5
12 12 12 11 11 11 10 10 10 10 9 9 9 9 9 8 8 8 8 8 8 8 7 8 8 7 7 7 7 7 7 6 6 6 6 5 5 5 5 5 5 5
12 12 11 11 11 11 10 10 10 10 9 9 9 9 9 8 8 8 7 7 8 7 7 7 7 7 7 6 6 7 6 6 6 6 5 5 5 5 5 5 5 5
12 12 11 11 11 11 10 10 10 10 10 10 9 9 9 9 8 8 7 7 7 7 7 7 7 7 7 6 6 6 6 6 6 5 5 5 5 5 5 5 5 5
12 12 11 11 11 11 10 10 9 9 9 9 9 9 9 9 9 8 7 7 6 6 6 7 7 7 7 6 6 6 6 6 6 5 5 5 5 5 4 4 4 4
12 12 12 11 11 10 10 9 9 9 9 9 9 8 8 9 9 8 7 7 6 6 6 6 7 7 7 6 6 6 6 6 5 5 5 4 4 4 4 4 4 4
12 12 12 11 11 10 10 9 9 8 8 9 8 8 8 9 8 7 7 6 6 6 6 6 7 7 6 6 6 6 6 6 5 5 5 4 4 4 4 4 4 4
12 12 12 12 11 11 10 9 9 8 8 8 8 8 8 8 8 7 7 6 6 6 6 6 7 7 6 5 5 6 6 5 5 5 5 4 4 4 4 4 4 4
12 12 12 12 11 11 10 9 9 8 8 9 8 8 8 8 7 7 7 6 6 6 6 6 7 7 6 5 5 5 5 5 5 5 5 4 4 4 4 4 4 4
12 12 12 12 11 11 11 10 9 8 8 8 8 8 8 8 7 7 7 6 5 6 6 6 7 6 6 5 5 5 5 5 5 5 4 4 4 4 4 4 4 4
13 13 12 12 12 12 11 10 10 9 9 8 8 7 8 8 8 7 6 5 5 6 6 6 6 6 6 5 5 5 5 5 5 4 4 4 4 4 3 4 4 4
13 13 13 13 12 12 11 11 10 9 9 8 8 8 8 8 7 7 5 5 5 6 6 6 6 6 5 5 5 5 4 4 4 4 4 4 4 3 3 3 3 3
13 13 13 13 12 12 11 11 10 9 9 9 8 8 7 7 7 6 5 5 5 6 6 6 6 6 5 5 5 5 4 4 5 4 4 4 4 3 3 3 3 3
13 13 13 12 12 12 11 11 10 9 9 8 7 7 7 7 7 6 6 6 6 6 6 6 6 5 5 5 5 5 5 5 5 4 4 4 3 3 3 3 3 3
13 13 12 12 12 11 11 10 9 9 9 8 7 7 7 7 7 7 7 6 6 6 6 6 6 5 5 5 5 5 5 5 5 4 4 4 3 3 3 3 3 3
13 12 12 11 11 11 10 10 9 9 8 8 8 7 7 7 7 7 6 6 6 6 6 6 5 5 5 5 5 5 5 5 4 4 4 4 3 3 4 3 3 3
12 12 12 11 11 10 10 10 9 9 8 8 8 7 7 7 6 6 6 6 6 6 6 5 5 5 5 5 5 5 5 4 4 4 4 4 4 4 4 3 3 3
12 12 12 11 11 10 10 9 9 9 9 8 7 7 7 6 6 6 6 6 6 6 5 5 5 5 5 5 5 5 4 4 4 4 4 3 4 4 4 3 3 3
Height
3192 3193 3193 3194 3195 3195 3195 3195 3196 3196 3196 3196 3196 3196 3196 3195 3195 3195 3194 3194 3193 3192 3191 3190 3189 3189 3188 3187 3186 3185 3185 3184 3183 3182 3181 3180 3179 3178 3178 3177 3177 3177
3190 3191 3191 3192 3192 3192 3192 3193 3193 3193 3194 3194 3194 3194 3194 3194 3194 3193 3193 3192 3192 3191 3190 3189 3188 3187 3187 3186 3185 3184 3183 3182 3181 3181 3180 3179 3178 3177 3176 3176 3175 3175
3188 3188 3189 3189 3189 3189 3190 3190 3191 3191 3192 3192 3192 3192 3192 3192 3192 3191 3191 3191 3190 3189 3188 3187 3187 3186 3185 3184 3184 3183 3182 3181 3180 3179 3178 3177 3176 3175 3174 3174 3173 3173
3185 3186 3186 3187 3187 3187 3187 3188 3188 3189 3189 3190 3190 3189 3189 3189 3189 3189 3189 3188 3188 3187 3186 3185 3184 3184 3183 3183 3182 3181 3180 3179 3178 3177 3176 3176 3175 3174 3173 3172 3171 3171
3183 3183 3184 3184 3184 3185 3184 3185 3186 3186 3187 3187 3187 3187 3186 3186 3186 3186 3186 3186 3185 3185 3184 3183 3182 3182 3182 3181 3180 3179 3178 3177 3176 3176 3175 3174 3173 3172 3171 3170 3170 3169
3180 3181 3181 3181 3182 3182 3182 3182 3183 3184 3184 3184 3184 3183 3183 3183 3183 3183 3183 3183 3183 3183 3182 3181 3180 3180 3180 3179 3178 3178 3177 3176 3175 3174 3174 3173 3172 3171 3170 3169 3168 3167
3177 3178 3178 3178 3179 3179 3179 3180 3180 3181 3181 3180 3180 3180 3179 3180 3180 3180 3180 3180 3181 3180 3179 3179 3179 3178 3178 3177 3177 3176 3175 3174 3173 3173 3172 3171 3170 3169 3169 3167 3166 3165
3175 3175 3175 3175 3176 3176 3177 3177 3177 3177 3177 3177 3176 3176 3176 3176 3175 3176 3177 3178 3178 3178 3177 3176 3176 3176 3175 3175 3174 3174 3173 3172 3171 3171 3170 3169 3169 3168 3167 3166 3165 3164
3172 3172 3172 3172 3173 3173 3174 3174 3174 3174 3173 3173 3172 3172 3172 3172 3172 3174 3174 3175 3175 3175 3174 3174 3174 3173 3173 3173 3172 3171 3170 3170 3169 3169 3168 3167 3167 3166 3165 3164 3163 3162
3169 3169 3169 3169 3169 3170 3171 3172 3171 3170 3169 3169 3168 3169 3169 3168 3170 3172 3172 3172 3172 3172 3172 3172 3171 3171 3170 3170 3170 3169 3168 3168 3167 3166 3166 3165 3164 3163 3163 3162 3160 3159
3166 3166 3166 3166 3166 3167 3168 3168 3167 3166 3165 3165 3164 3166 3166 3165 3165 3167 3169 3170 3170 3170 3170 3170 3169 3168 3167 3168 3168 3167 3166 3166 3165 3164 3163 3163 3162 3161 3160 3159 3158 3157
3163 3163 3163 3164 3164 3163 3164 3164 3163 3162 3161 3160 3161 3161 3162 3162 3161 3162 3165 3166 3167 3167 3167 3168 3166 3165 3165 3165 3165 3164 3164 3163 3163 3162 3161 3161 3160 3159 3158 3157 3155 3154
3160 3160 3161 3161 3161 3160 3161 3161 3160 3159 3157 3157 3158 3158 3159 3160 3159 3159 3161 3162 3163 3163 3164 3164 3164 3162 3162 3162 3162 3161 3161 3161 3160 3160 3159 3158 3157 3156 3155 3154 3153 3151
3158 3157 3157 3157 3156 3157 3158 3157 3156 3156 3155 3154 3155 3155 3157 3158 3157 3156 3157 3158 3159 3160 3160 3161 3161 3160 3159 3159 3159 3158 3158 3158 3158 3157 3156 3156 3155 3154 3152 3151 3150 3148
3154 3154 3154 3152 3151 3152 3152 3151 3151 3153 3152 3150 3150 3152 3154 3155 3154 3153 3153 3154 3154 3156 3156 3157 3157 3156 3156 3156 3156 3155 3155 3155 3155 3154 3154 3153 3152 3151 3150 3149 3147 3146
3150 3150 3149 3147 3146 3146 3145 3144 3144 3147 3147 3144 3145 3148 3150 3150 3149 3148 3148 3149 3151 3152 3152 3152 3152 3153 3153 3153 3152 3152 3152 3152 3152 3151 3151 3150 3149 3148 3147 3146 3145 3143
3146 3146 3144 3143 3142 3140 3139 3137 3136 3138 3141 3140 3140 3143 3145 3144 3144 3143 3142 3144 3147 3148 3149 3149 3149 3149 3149 3149 3149 3149 3149 3149 3149 3149 3148 3147 3146 3145 3144 3143 3142 3140
3142 3141 3140 3138 3137 3135 3134 3132 3128 3127 3131 3134 3136 3138 3139 3138 3138 3137 3138 3140 3142 3144 3145 3146 3146 3146 3146 3146 3146 3146 3146 3146 3146 3145 3145 3144 3143 3142 3141 3140 3138 3137
3137 3136 3135 3134 3133 3131 3129 3128 3125 3123 3123 3125 3129 3133 3133 3133 3133 3133 3134 3136 3137 3139 3142 3142 3143 3143 3143 3143 3143 3143 3143 3142 3142 3142 3141 3140 3139 3138 3137 3136 3134 3133
3133 3132 3131 3130 3128 3126 3125 3124 3124 3124 3122 3120 3123 3128 3129 3129 3129 3129 3130 3132 3134 3136 3138 3138 3139 3140 3140 3140 3140 3139 3139 3139 3139 3139 3138 3137 3136 3134 3133 3132 3130 3129
3129 3128 3127 3126 3125 3123 3121 3120 3121 3122 3119 3116 3118 3123 3125 3125 3125 3125 3126 3128 3130 3132 3133 3134 3135 3136 3136 3137 3137 3136 3136 3136 3136 3135 3134 3133 3132 3131 3129 3128 3126 3125
3125 3124 3123 3123 3121 3119 3117 3117 3118 3117 3115 3114 3115 3117 3119 3120 3120 3121 3123 3125 3127 3128 3129 3130 3132 3133 3133 3134 3134 3133 3133 3133 3133 3132 3130 3129 3128 3127 3126 3124 3123 3121
3121 3120 3119 3119 3117 3116 3114 3114 3114 3114 3113 3112 3112 3113 3115 3116 3117 3119 3120 3122 3123 3125 3126 3127 3129 3130 3131 3131 3131 3131 3130 3130 3129 3128 3127 3126 3124 3123 3122 3120 3119 3117
3117 3116 3115 3115 3114 3112 3111 3110 3109 3109 3109 3109 3109 3110 3112 3114 3115 3117 3118 3119 3121 3122 3123 3124 3126 3127 3128 3128 3128 3128 3128 3127 3126 3124 3123 3122 3121 3119 3118 3117 3115 3114
3113 3112 3111 3111 3110 3109 3108 3106 3105 3104 3105 3105 3106 3107 3110 3112 3113 3114 3115 3116 3118 3119 3120 3121 3123 3124 3125 3126 3126 3125 3125 3124 3122 3120 3118 3118 3117 3115 3115 3114 3112 3110
3109 3108 3108 3107 3106 3106 3105 3103 3103 3102 3102 3103 3104 3105 3107 3109 3110 3111 3112 3113 3114 3116 3117 3119 3120 3121 3122 3123 3122 3122 3122 3119 3115 3114 3115 3114 3112 3111 3110 3109 3108 3106
Wind_Speed
16 16 16 14 12 12 12 11 10 10 10 10 10 11 12 12 13 14 15 15 16 17 16 15 13 11 10 9 8 8 8 8 8 8 9 9 10 10 11 12 12 12
18 18 18 17 16 16 16 15 14 13 13 13 13 14 14 14 14 14 15 15 15 16 16 15 13 11 10 9 9 9 9 9 8 8 8 9 9 10 11 12 12 13
20 21 21 20 20 20 19 18 18 17 17 16 16 17 17 16 15 15 15 15 15 15 16 14 13 11 10 9 9 9 9 9 10 9 9 9 9 9 10 11 12 13
23 23 23 24 24 24 23 22 21 21 21 20 20 21 20 19 18 17 16 15 15 15 15 14 13 11 11 10 10 9 9 10 10 10 11 11 11 11 11 12 12 13
25 25 26 27 27 27 27 26 25 24 24 23 23 23 23 21 20 18 17 16 15 14 14 14 13 12 11 11 10 10 10 10 10 10 11 12 12 12 13 13 14 14
26 26 28 29 30 30 30 29 28 27 27 27 26 26 24 23 21 18 17 16 15 14 14 13 13 12 12 12 11 10 10 11 11 11 11 12 12 13 14 14 15 15
26 27 29 31 32 32 32 32 31 31 30 30 30 30 28 26 24 22 18 17 16 15 13 13 13 13 13 13 12 12 11 11 11 12 12 13 13 14 15 16 16 16
26 28 30 33 34 35 34 35 34 34 33 33 34 33 31 31 32 31 26 22 19 17 14 12 13 14 15 14 13 13 13 12 12 13 13 14 14 15 15 16 17 17
28 30 32 34 36 37 36 37 37 37 36 36 36 36 35 34 33 33 33 27 22 20 18 15 15 14 16 16 15 14 13 13 13 14 14 15 15 16 16 17 18 18
28 31 34 36 38 39 38 38 40 41 40 40 40 39 40 41 37 34 34 32 28 25 22 21 19 15 17 18 16 15 14 13 15 15 16 16 17 17 17 18 19 19
28 30 33 36 40 42 41 40 42 43 44 44 45 44 43 46 46 40 34 32 34 32 27 25 22 17 18 20 17 15 14 14 16 16 16 17 17 18 18 18 19 20
29 30 32 34 38 42 44 44 45 46 48 48 48 47 46 48 50 46 39 34 35 35 31 28 24 19 19 20 18 15 15 15 16 17 17 18 18 19 19 19 20 21
27 28 29 31 36 42 46 48 48 49 51 51 50 50 50 49 50 47 44 39 35 33 31 29 26 22 20 20 18 16 17 17 17 18 18 19 19 20 21 21 22 23
23 25 27 30 36 41 45 48 51 52 54 55 53 53 52 52 52 51 47 42 36 31 28 29 29 25 21 20 18 18 18 18 17 18 18 19 20 21 22 23 25 26
23 25 28 32 37 41 43 47 50 51 55 58 56 54 51 49 51 52 50 44 36 28 26 29 29 25 21 20 19 19 19 18 17 17 17 18 19 21 23 25 26 28
26 27 29 33 36 39 42 46 48 46 50 57 59 54 50 46 44 45 47 44 35 27 26 29 27 23 21 21 20 20 19 18 17 17 17 18 20 22 24 26 27 29
29 30 32 34 36 37 40 44 47 45 44 48 51 49 46 43 40 40 43 43 34 27 27 28 26 22 22 21 21 20 19 19 18 18 18 19 20 22 24 26 28 30
32 33 35 36 36 38 38 39 44 46 44 41 37 35 35 36 35 36 40 39 33 28 28 28 26 23 22 22 21 20 20 20 20 20 20 21 22 24 26 27 29 31
30 32 34 35 35 37 36 35 39 42 43 43 34 26 28 32 31 31 33 31 29 29 29 28 26 23 23 22 21 20 21 22 22 22 23 23 25 27 28 29 31 32
25 27 29 31 33 35 34 34 34 33 36 41 33 21 25 30 28 27 28 27 28 29 29 27 25 23 23 22 21 21 22 24 24 24 25 26 28 30 30 31 32 33
24 26 27 29 31 34 34 33 30 27 26 27 22 17 23 28 27 25 25 26 29 30 28 26 24 24 24 22 21 22 24 25 25 25 26 28 30 32 31 31 32 34
25 26 27 29 30 32 33 28 21 18 17 16 15 19 24 27 27 26 25 27 29 29 27 25 24 24 24 24 23 24 25 25 25 27 28 29 31 32 32 32 33 35
25 26 27 28 28 29 28 23 17 15 16 17 18 22 25 27 27 26 25 26 28 28 26 25 25 25 25 25 25 26 26 26 27 28 29 30 32 33 34 34 33 35
24 24 25 26 27 25 24 22 19 17 18 19 21 24 26 27 27 25 24 24 25 26 26 26 26 26 26 27 27 28 28 29 29 30 30 31 33 36 37 36 34 35
24 23 23 24 25 23 21 20 18 16 17 19 23 26 27 28 27 25 24 23 24 26 27 27 27 26 27 28 28 29 30 31 32 33 33 33 36 38 39 37 34 36
24 22 23 24 24 23 20 18 18 17 16 18 22 26 28 29 27 25 24 24 26 27 27 27 28 28 28 28 29 30 30 33 36 36 34 36 38 38 36 35 34 36
Wind_Direction
220 222 222 222 227 234 236 238 243 251 261 272 281 289 299 308 317 323 325 327 331 336 339 342 342 337 332 332 332 328 326 330 334 332 325 320 318 314 312 311 309 308
229 229 230 234 242 247 243 239 242 249 258 267 274 281 288 296 305 313 319 322 324 329 334 336 335 330 326 326 324 323 327 329 331 331 325 321 320 315 311 309 308 307
235 235 236 240 244 245 240 238 243 251 258 264 269 276 281 288 296 304 311 316 318 322 327 329 328 323 318 316 315 319 325 326 327 329 328 326 324 320 315 313 310 308
240 240 242 243 243 242 240 240 245 251 257 262 266 272 277 283 290 297 304 309 311 314 318 321 320 316 311 307 309 317 321 321 325 327 327 325 325 324 320 317 315 313
244 245 246 245 244 245 245 245 247 251 255 259 263 268 273 278 284 290 297 301 303 305 310 314 313 308 303 302 305 311 314 315 320 322 321 321 322 322 319 316 317 316
246 247 248 248 246 248 249 249 250 253 256 259 262 265 269 275 280 283 288 292 293 296 303 307 307 300 295 296 299 301 305 308 312 315 317 317 318 318 314 313 314 315
248 250 251 250 249 250 251 252 253 253 255 259 261 264 267 270 271 269 274 281 282 285 294 302 301 294 290 292 292 294 299 303 306 310 314 316 316 315 311 311 313 313
249 250 251 251 251 251 253 255 254 251 253 257 259 262 264 265 267 270 273 274 274 277 286 299 298 290 289 289 287 290 295 299 303 307 310 312 313 311 309 310 312 313
251 251 252 252 252 252 253 256 256 255 255 255 257 260 260 259 266 276 276 269 267 274 282 294 296 287 284 283 282 286 292 297 301 303 305 306 308 308 308 310 313 314
255 256 255 254 253 253 254 255 257 257 256 255 258 262 263 265 270 278 279 270 269 273 275 285 290 277 272 276 277 284 292 298 300 298 300 301 303 304 305 308 312 313
260 261 261 259 257 254 253 255 257 259 261 262 264 266 269 274 276 279 283 276 272 271 267 274 281 270 265 271 274 284 292 294 294 292 293 295 296 298 300 304 309 310
264 266 267 267 265 259 254 254 256 260 263 265 268 267 269 277 280 282 285 280 275 272 264 268 276 268 262 268 273 282 288 287 288 287 287 289 290 291 294 301 307 310
267 270 271 273 271 264 257 253 254 258 262 264 267 266 268 277 282 283 284 282 281 275 264 265 273 267 260 265 270 277 280 280 284 284 285 288 289 290 295 302 309 311
266 269 271 272 270 265 261 257 254 255 260 264 265 265 267 275 280 281 282 283 282 275 262 263 269 263 256 260 266 271 276 279 283 285 287 289 291 294 299 304 308 309
265 267 270 271 269 267 266 263 258 256 258 261 264 266 269 275 279 279 279 280 279 268 258 260 262 256 250 255 263 269 274 279 283 286 290 293 296 300 303 305 305 305
265 268 271 273 274 275 272 269 267 263 260 262 264 268 272 276 279 276 272 274 272 259 253 257 256 249 247 253 261 268 274 278 281 286 292 297 301 304 305 304 302 302
266 268 270 271 275 278 277 277 278 274 267 265 266 269 272 271 268 265 265 269 265 250 250 256 253 247 246 251 260 268 272 275 279 285 291 296 302 306 307 306 304 303
272 271 272 273 275 278 280 284 286 281 273 269 268 269 266 257 253 258 265 265 254 241 246 254 253 248 245 249 259 265 270 275 279 284 289 294 299 303 306 309 309 307
274 273 274 275 276 278 281 284 287 285 281 278 275 265 252 245 246 257 262 255 241 236 242 249 249 244 241 247 257 263 269 274 278 283 288 292 296 298 303 309 311 308
276 274 274 274 274 276 278 281 284 286 289 290 284 257 240 243 246 249 249 241 233 233 239 244 243 237 238 246 255 261 267 272 278 284 289 293 296 297 300 306 309 309
282 278 276 274 273 273 275 280 283 286 290 292 281 245 235 241 239 233 230 226 226 229 236 241 237 232 237 246 253 259 265 272 281 287 289 292 296 297 298 303 308 309
291 286 282 278 274 274 276 280 284 283 276 265 247 232 232 232 227 220 215 215 222 229 234 234 231 231 238 246 253 260 268 276 283 287 288 292 295 296 297 301 306 308
298 292 287 281 276 276 277 275 272 265 252 234 223 224 226 224 218 212 211 217 226 232 233 230 229 233 240 248 256 263 271 278 283 285 287 290 293 295 296 298 302 305
302 293 285 280 277 274 273 273 266 251 236 225 217 216 218 216 211 210 216 225 230 232 231 230 231 236 242 250 258 267 274 279 282 283 285 288 291 293 294 295 299 303
305 293 282 277 274 269 267 269 263 243 228 221 214 211 211 210 211 216 224 228 228 227 228 230 235 240 245 252 260 268 275 281 282 281 281 283 287 290 291 294 298 303
306 292 279 273 271 267 260 254 248 241 234 224 213 207 207 209 214 222 226 226 225 225 227 233 239 243 248 255 262 268 276 282 281 276 277 281 285 287 290 293 297 300